| time (UTC) | temp F | wind direction | speed knots | gust knots | rain 1hr in | rain 24hr in | rain mn in | humidity % | barometer mb |
| 20260504231530 | 60 | 214 | 0.0 | 0.0 | 0.00 | 0.01 | 0.01 | 58 | 1006.2 |
| 20260504230030 | 61 | 214 | 0.0 | 0.9 | 0.00 | 0.01 | 0.01 | 56 | 1006.2 |
| 20260504224530 | 61 | 214 | 0.0 | 5.2 | 0.00 | 0.01 | 0.01 | 56 | 1006.1 |
| 20260504223029 | 61 | 310 | 0.9 | 5.2 | 0.00 | 0.01 | 0.01 | 54 | 1006.0 |
| 20260504221529 | 62 | 215 | 0.9 | 7.0 | 0.00 | 0.01 | 0.01 | 53 | 1005.9 |
| 20260504220042 | 61 | 320 | 0.9 | 4.3 | 0.00 | 0.01 | 0.01 | 56 | 1006.0 |
| 20260504214533 | 61 | 196 | 0.0 | 7.0 | 0.00 | 0.01 | 0.01 | 55 | 1005.9 |
| 20260504213031 | 62 | 204 | 1.7 | 8.7 | 0.00 | 0.01 | 0.01 | 54 | 1005.8 |
| 20260504211536 | 62 | 300 | 1.7 | 9.6 | 0.00 | 0.01 | 0.01 | 57 | 1005.7 |
| 20260504210026 | 62 | 283 | 2.6 | 7.0 | 0.00 | 0.01 | 0.01 | 57 | 1005.7 |
| 20260504204536 | 62 | 220 | 5.2 | 12.2 | 0.00 | 0.01 | 0.01 | 57 | 1005.6 |
| 20260504203025 | 62 | 243 | 4.3 | 11.3 | 0.00 | 0.01 | 0.01 | 56 | 1005.5 |
| 20260504201526 | 62 | 302 | 4.3 | 11.3 | 0.00 | 0.01 | 0.01 | 57 | 1005.6 |
| 20260504200023 | 62 | 268 | 1.7 | 8.7 | 0.00 | 0.01 | 0.01 | 63 | 1005.5 |
| 20260504194520 | 60 | 191 | 4.3 | 7.8 | 0.00 | 0.02 | 0.01 | 64 | 1005.5 |
| 20260504193017 | 58 | 201 | 3.5 | 10.4 | 0.00 | 0.02 | 0.01 | 71 | 1005.7 |
| 20260504191513 | 56 | 221 | 3.5 | 7.0 | 0.00 | 0.02 | 0.01 | 75 | 1005.7 |
| 20260504190013 | 54 | 222 | 4.3 | 7.8 | 0.01 | 0.02 | 0.01 | 78 | 1006.0 |
| 20260504184511 | 53 | 222 | 0.9 | 3.5 | 0.01 | 0.04 | 0.01 | 84 | 1006.0 |
| 20260504183010 | 52 | 222 | 1.7 | 4.3 | 0.01 | 0.04 | 0.01 | 85 | 1006.3 |
| 20260504181507 | 52 | 218 | 0.0 | 5.2 | 0.00 | 0.03 | 0.00 | 83 | 1006.5 |
| 20260504180006 | 54 | 308 | 0.9 | 4.3 | 0.00 | 0.03 | 0.00 | 76 | 1006.8 |
| 20260504174506 | 55 | 297 | 2.6 | 7.8 | 0.00 | 0.05 | 0.00 | 71 | 1006.4 |
| 20260504173004 | 56 | 335 | 3.5 | 8.7 | 0.00 | 0.05 | 0.00 | 69 | 1006.1 |
| 20260504171506 | 54 | 174 | 0.9 | 3.5 | 0.00 | 0.05 | 0.00 | 71 | 1006.0 |
| 20260504081552 | 36 | 233 | 0.0 | 2.6 | 0.00 | 0.47 | 0.00 | 79 | 1007.5 |
| 20260504080153 | 36 | 235 | 0.0 | 3.5 | 0.00 | 0.47 | 0.00 | 79 | 1007.4 |
| 20260504044533 | 40 | 308 | 0.9 | 5.2 | 0.00 | 0.49 | 0.00 | 67 | 1006.4 |
| 20260504043030 | 41 | 299 | 1.7 | 4.3 | 0.00 | 0.49 | 0.00 | 66 | 1006.4 |
| 20260504041518 | 41 | 298 | 1.7 | 5.2 | 0.00 | 0.49 | 0.00 | 67 | 1006.4 |
| 20260504040019 | 41 | 316 | 1.7 | 5.2 | 0.00 | 0.49 | 0.00 | 66 | 1006.3 |
| 20260504034514 | 41 | 314 | 0.9 | 4.3 | 0.00 | 0.49 | 0.49 | 66 | 1006.0 |
| 20260504033013 | 41 | 314 | 0.9 | 6.1 | 0.00 | 0.49 | 0.49 | 65 | 1005.8 |
| 20260504031517 | 42 | 317 | 1.7 | 4.3 | 0.00 | 0.49 | 0.49 | 64 | 1005.9 |
| 20260504030014 | 42 | 318 | 3.5 | 7.8 | 0.00 | 0.49 | 0.49 | 62 | 1005.7 |
| 20260504024512 | 42 | 323 | 2.6 | 6.1 | 0.00 | 0.49 | 0.49 | 62 | 1005.6 |
| 20260504023011 | 43 | 322 | 4.3 | 7.8 | 0.00 | 0.49 | 0.49 | 61 | 1005.5 |
| 20260504021513 | 43 | 327 | 3.5 | 7.8 | 0.00 | 0.49 | 0.49 | 60 | 1005.4 |
| 20260504020012 | 43 | 255 | 3.5 | 7.8 | 0.00 | 0.49 | 0.49 | 60 | 1005.2 |
| 20260504014510 | 44 | 303 | 3.5 | 7.0 | 0.00 | 0.49 | 0.49 | 60 | 1005.2 |
| 20260504013011 | 44 | 296 | 4.3 | 9.6 | 0.00 | 0.49 | 0.49 | 59 | 1005.0 |
| 20260504011507 | 44 | 318 | 3.5 | 7.8 | 0.00 | 0.49 | 0.49 | 58 | 1005.0 |
| 20260504010007 | 44 | 319 | 5.2 | 9.6 | 0.00 | 0.49 | 0.49 | 58 | 1004.7 |
| 20260504004515 | 45 | 318 | 4.3 | 8.7 | 0.00 | 0.49 | 0.49 | 59 | 1004.5 |
| 20260504003005 | 45 | 295 | 5.2 | 8.7 | 0.00 | 0.49 | 0.49 | 60 | 1004.1 |
| 20260504001505 | 46 | 324 | 5.2 | 11.3 | 0.00 | 0.49 | 0.49 | 61 | 1003.9 |
| 20260504000004 | 46 | 308 | 4.3 | 7.8 | 0.00 | 0.49 | 0.49 | 66 | 1003.6 |
| 20260503234502 | 46 | 309 | 3.5 | 6.1 | 0.00 | 0.49 | 0.49 | 73 | 1003.3 |
| 20260503233059 | 46 | 294 | 0.9 | 3.5 | 0.00 | 0.49 | 0.49 | 84 | 1003.2 |